Weather reports worldwide

Advertisment
Freiburg, Germany (10803): temperature & dewpoint: 16.06.2018 15:00:00 - 22.06.2018 15:00:00 (CEST)Freiburg, Germany (10803): temperature 5cm & temperature -5cm: 16.06.2018 15:00:00 - 22.06.2018 15:00:00 (CEST)Freiburg, Germany (10803): temperature -20cm & temperature -100cm: 16.06.2018 15:00:00 - 22.06.2018 15:00:00 (CEST)Freiburg, Germany (10803): wind speed & gusts: 16.06.2018 15:00:00 - 22.06.2018 15:00:00 (CEST)Freiburg, Germany (10803): wind direction: 16.06.2018 15:00:00 - 22.06.2018 15:00:00 (CEST)Freiburg, Germany (10803): reduced air pressure: 16.06.2018 15:00:00 - 22.06.2018 15:00:00 (CEST)Freiburg, Germany (10803): visibility: 16.06.2018 15:00:00 - 22.06.2018 15:00:00 (CEST)Freiburg, Germany (10803): sunshine duration: 16.06.2018 15:00:00 - 22.06.2018 15:00:00 (CEST)Freiburg, Germany (10803): precipitation: 16.06.2018 15:00:00 - 22.06.2018 15:00:00 (CEST)
Date & Time tt [°C] td [°C] tt 5cm [°C] tt -5cm [°C] tt -20cm [°C] tt -100cm [°C] ff [km/h] ff [kn] fx [km/h] fx [kn] dd ppp [hPa] vv [km] sd [min] rr [mm]
22.06.2018 15:00:00 18,4 6,5 26,9 32,3 24,0 19,5 15 8 27 15 NNW 1025,3 44 60 0,0
22.06.2018 14:00:00 17,0 4,3 27,6 32,0 23,3 19,5 13 7 27 14 N 1025,7 61 60 0,0
22.06.2018 13:00:00 16,2 4,7 25,3 30,4 22,6 19,5 15 8 25 14 N 1026,3 52 57 0,0
22.06.2018 12:00:00 15,3 4,6 24,3 28,7 22,0 19,5 9 5 27 15 NNW 1026,3 55 60 0,0
22.06.2018 11:00:00 14,9 5,7 22,8 25,9 21,7 19,5 13 7 32 17 NNW 1026,4 47 60 0,0
22.06.2018 10:00:00 13,4 5,0 19,5 23,1 21,5 19,5 16 9 25 13 NW 1026,7 33 60 0,0
22.06.2018 09:00:00 12,7 6,1 17,0 20,4 21,5 19,5 15 8 22 12 NW 1026,1 27 60 0,0
22.06.2018 08:00:00 11,8 5,1 16,4 17,7 21,8 19,5 8 4 16 9 N 1025,9 54 60 0,0
22.06.2018 07:00:00 9,6 5,1 11,2 15,5 22,2 19,4 10 5 15 8 NNW 1026,0 53 35 0,0
22.06.2018 06:00:00 8,8 4,8 7,1 15,3 22,8 19,4 11 6 16 9 NNW 1025,9 50 0 0,0
22.06.2018 05:00:00 8,5 4,3 4,8 16,0 23,3 19,4 4 2 11 6 N 1025,7 51 0 0,0
22.06.2018 04:00:00 11,6 4,3 8,6 17,0 23,8 19,4 3 1 17 9 ESE 1024,9 58 0 0,0
22.06.2018 03:00:00 11,4 4,5 9,0 17,9 24,4 19,4 11 6 17 9 NNW 1024,3 55 0 0,0
22.06.2018 02:00:00 13,7 4,4 11,5 19,1 24,9 19,4 9 5 22 12 N 1023,7 54 0 0,0
22.06.2018 01:00:00 14,7 5,4 12,7 20,3 25,4 19,4 16 9 30 16 NNW 1023,1 58 0 0,0
22.06.2018 00:00:00 16,7 5,5 15,5 21,8 25,9 19,4 15 8 29 16 N 1022,5 61 0 0,0
21.06.2018 23:00:00 18,2 5,5 16,8 23,0 26,4 19,4 15 8 32 18 N 1021,4 62 0 0,0
21.06.2018 22:00:00 19,7 8,7 18,8 24,4 26,8 19,3 14 7 27 14 N 1020,3 61 0 0,0
21.06.2018 21:00:00 21,0 10,6 20,6 25,9 27,1 19,3 10 6 19 11 N 1018,9 70 0 0,0
21.06.2018 20:00:00 21,7 12,5 23,3 27,7 27,3 19,3 18 10 30 16 NNW 1018,1 66 28 0,0
21.06.2018 19:00:00 22,5 14,2 23,4 28,6 27,5 19,3 12 7 28 15 N 1017,6 57 0 0,0
21.06.2018 18:00:00 23,8 14,2 25,7 30,8 27,4 19,3 17 9 34 19 N 1016,7 66 20 0,0
21.06.2018 17:00:00 25,3 13,8 29,5 32,8 27,2 19,3 21 11 33 18 NNW 1016,1 39 35 0,0
21.06.2018 16:00:00 26,6 14,2 33,5 33,3 27,0 19,3 11 6 24 13 NW 1016,0 47 27 0,0
21.06.2018 15:00:00 25,6 13,7 29,2 33,1 26,6 19,3 13 7 23 12 NNW 1016,3 57 10 0,0
21.06.2018 14:00:00 26,3 13,0 33,7 35,6 26,0 19,2 12 6 31 17 NW 1016,3 56 54 0,0
21.06.2018 13:00:00 25,4 12,7 32,0 33,9 25,4 19,2 14 8 26 14 NNW 1016,9 69 51 0,0
21.06.2018 12:00:00 25,3 14,7 34,7 33,1 24,9 19,2 6 3 18 10 NNW 1017,0 58 42 0,0
21.06.2018 11:00:00 24,2 14,5 29,7 31,0 24,4 19,2 5 3 18 10 NW 1017,0 49 45 0,0
21.06.2018 10:00:00 24,1 15,6 31,5 29,1 24,1 19,2 10 5 18 10 NNW 1016,9 44 60 0,0
21.06.2018 09:00:00 23,1 16,3 27,7 26,4 24,0 19,2 8 4 16 9 N 1017,0 34 60 0,0
21.06.2018 08:00:00 21,4 17,2 25,8 23,5 24,1 19,2 5 3 7 4 NNW 1017,1 30 49 0,0
21.06.2018 07:00:00 18,9 16,8 20,4 21,4 24,4 19,2 2 1 3 2 NNW 1017,3 24 22 0,0
21.06.2018 06:00:00 18,7 16,7 17,3 21,1 24,8 19,2 4 2 9 5 SE 1017,2 25 0 0,0
21.06.2018 05:00:00 18,1 16,9 16,2 21,2 25,2 19,1 5 3 8 4 NNW 1016,9 24 0 0,0
21.06.2018 04:00:00 17,1 16,1 14,7 21,7 25,6 19,1 2 1 10 5 NNW 1017,1 18 0 0,0
21.06.2018 03:00:00 17,8 16,7 15,1 22,4 26,1 19,1 0 0 4 2 N 1017,1 25 0 0,0
21.06.2018 02:00:00 18,5 16,9 16,2 23,3 26,5 19,1 3 1 9 5 WSW 1017,4 14 0 0,0
21.06.2018 01:00:00 19,9 17,6 18,2 24,2 27,0 19,1 9 5 12 6 NNW 1017,6 24 0 0,0
21.06.2018 00:00:00 21,0 17,4 18,2 25,3 27,4 19,1 4 2 7 4 SSW 1017,6 41 0 0,0
20.06.2018 23:00:00 21,8 17,3 19,3 26,5 27,8 19,1 0 0 5 3 N 1017,6 50 0 0,0
20.06.2018 22:00:00 23,9 18,5 21,5 28,2 28,2 19,1 0 0 6 3 N 1017,0 39 0 0,0
20.06.2018 21:00:00 26,7 16,7 27,2 29,9 28,4 19,1 5 3 8 5 NNW 1016,5 70 40 0,0
20.06.2018 20:00:00 28,5 15,9 31,0 31,9 28,4 19,1 7 4 13 7 NNW 1016,6 66 54 0,0
20.06.2018 19:00:00 28,8 16,4 34,8 33,7 28,3 19,1 10 5 18 10 NNW 1016,7 51 60 0,0
20.06.2018 18:00:00 29,0 17,9 34,7 35,6 27,9 19,0 12 7 22 12 NNW 1016,9 43 60 0,0
20.06.2018 17:00:00 28,7 17,1 37,6 37,0 27,4 19,0 10 5 18 10 NNW 1017,3 47 60 0,0
20.06.2018 16:00:00 28,4 16,9 36,4 37,6 26,7 19,0 9 5 21 11 NW 1017,9 40 60 0,0
20.06.2018 15:00:00 27,9 17,0 35,4 37,5 26,0 19,0 10 6 23 12 NW 1018,5 43 60 0,0
20.06.2018 14:00:00 27,7 16,5 37,6 36,8 25,1 19,0 8 5 19 10 NNW 1019,1 50 59 0,0
20.06.2018 13:00:00 26,1 16,9 35,5 35,5 24,3 19,0 8 5 16 9 NW 1019,9 48 60 0,0
20.06.2018 12:00:00 24,8 17,3 35,0 33,4 23,5 19,0 7 4 13 7 NNW 1020,4 39 60 0,0
20.06.2018 11:00:00 22,9 15,3 31,9 30,7 22,9 19,0 8 4 12 7 NNW 1020,9 30 60 0,0
20.06.2018 10:00:00 21,6 15,9 27,1 27,6 22,6 19,0 5 3 10 5 SSW 1021,5 44 60 0,0
20.06.2018 09:00:00 19,9 15,4 25,4 24,4 22,4 19,0 4 2 8 5 N 1021,7 24 60 0,0
20.06.2018 08:00:00 18,2 14,6 23,2 21,6 22,6 19,0 3 2 6 3 NNW 1022,0 15 60 0,0
20.06.2018 07:00:00 17,2 14,6 17,6 19,1 22,9 18,9 0 0 6 3 N 1021,9 11 36 0,0
20.06.2018 06:00:00 15,2 14,5 13,3 18,6 23,3 18,9 0 0 7 4 N 1022,1 9 0 0,0
20.06.2018 05:00:00 15,6 14,9 13,8 19,2 23,7 18,9 6 4 9 5 N 1022,2 13 0 0,0
20.06.2018 04:00:00 16,2 14,9 12,6 19,7 24,1 18,9 4 2 8 4 NNE 1022,3 22 0 0,0
20.06.2018 03:00:00 16,6 14,8 14,4 20,4 24,5 18,9 6 3 9 5 NNE 1022,4 36 0 0,0
20.06.2018 02:00:00 17,5 15,6 15,8 21,1 25,0 18,9 5 3 9 5 NNE 1022,8 38 0 0,0
20.06.2018 01:00:00 16,3 14,3 13,8 21,9 25,5 18,9 3 1 5 3 N 1022,9 47 0 0,0
20.06.2018 00:00:00 17,3 14,7 15,0 22,9 25,9 18,9 4 2 11 6 NNW 1023,0 53 0 0,0
19.06.2018 23:00:00 18,7 15,1 16,0 24,1 26,4 18,9 5 3 13 7 NNW 1022,7 57 0 0,0
19.06.2018 22:00:00 22,4 14,7 19,7 25,6 26,7 18,9 7 4 13 7 N 1022,1 59 0 0,0
19.06.2018 21:00:00 23,7 14,7 22,9 27,4 27,0 18,9 7 4 19 10 N 1021,9 70 31 0,0
19.06.2018 20:00:00 25,5 14,0 27,9 29,5 27,1 18,9 11 6 21 11 NNW 1021,8 63 60 0,0
19.06.2018 19:00:00 26,3 14,3 31,3 31,4 27,0 18,9 11 6 27 15 N 1021,9 69 60 0,0
19.06.2018 18:00:00 26,4 14,4 32,6 33,4 26,7 18,9 14 8 24 13 NNW 1022,1 65 60 0,0
19.06.2018 17:00:00 26,1 14,1 34,0 34,9 26,2 18,8 13 7 23 12 NNW 1022,3 53 60 0,0
19.06.2018 16:00:00 25,6 13,0 34,2 35,7 25,5 18,8 8 4 23 13 NNW 1022,8 50 60 0,0
19.06.2018 15:00:00 25,2 13,5 34,7 35,8 24,7 18,8 9 5 22 12 NNW 1023,3 56 60 0,0
19.06.2018 14:00:00 24,5 14,1 34,0 34,9 23,9 18,8 12 7 21 11 NNW 1023,9 60 60 0,0
19.06.2018 13:00:00 24,0 12,5 33,4 32,6 23,1 18,8 5 3 20 11 NE 1024,2 68 56 0,0
19.06.2018 12:00:00 22,9 13,1 33,2 30,9 22,5 18,8 7 4 19 10 N 1024,5 54 53 0,0
19.06.2018 11:00:00 22,3 12,5 31,1 29,4 21,9 18,8 7 4 14 7 NNE 1024,7 56 60 0,0
19.06.2018 10:00:00 21,3 13,8 27,2 25,6 21,6 18,8 3 2 9 5 NNW 1025,2 43 41 0,0
19.06.2018 09:00:00 18,3 13,6 20,9 21,4 21,6 18,8 7 4 11 6 WNW 1025,7 46 0 0,0
19.06.2018 08:00:00 17,3 13,7 18,5 19,7 21,7 18,8 0 0 4 2 N 1025,4 31 0 0,0
19.06.2018 07:00:00 15,4 13,3 16,1 18,7 22,0 18,8 3 2 6 3 WSW 1025,5 26 0 0,0
19.06.2018 06:00:00 13,2 12,4 13,4 17,8 22,3 18,8 2 1 5 3 NNE 1025,5 17 0 0,0
19.06.2018 05:00:00 13,7 12,4 12,2 18,4 22,7 18,8 4 2 5 3 NW 1025,1 24 0 0,0
19.06.2018 04:00:00 13,4 12,3 12,8 18,7 23,1 18,8 3 2 4 2 WNW 1025,1 22 0 0,0
19.06.2018 03:00:00 13,7 11,9 11,4 18,8 23,5 18,7 3 1 8 5 E 1024,9 33 0 0,0
19.06.2018 02:00:00 13,9 12,2 11,5 19,5 24,0 18,7 3 2 8 4 NW 1024,3 32 0 0,0
19.06.2018 01:00:00 15,3 13,3 12,7 20,4 24,5 18,7 7 4 8 4 NNW 1024,2 30 0 0,0
19.06.2018 00:00:00 16,6 13,4 13,5 21,4 25,0 18,7 2 1 5 3 S 1023,8 45 0 0,0
18.06.2018 23:00:00 16,6 13,4 14,0 22,6 25,4 18,7 4 2 9 5 NNE 1023,6 49 0 0,0
18.06.2018 22:00:00 18,0 13,3 15,6 24,2 25,8 18,7 5 3 10 5 N 1022,9 55 0 0,0
18.06.2018 21:00:00 21,2 13,2 20,7 26,3 26,0 18,7 8 4 17 9 NNW 1022,1 64 36 0,0
18.06.2018 20:00:00 23,1 13,0 26,4 28,8 26,0 18,7 10 5 17 9 NNW 1021,8 55 58 0,0
18.06.2018 19:00:00 23,9 12,7 30,3 30,3 25,9 18,7 9 5 19 10 NNW 1021,6 57 60 0,0
18.06.2018 18:00:00 23,8 11,3 31,6 31,3 25,7 18,7 10 5 16 9 NW 1021,6 48 28 0,0
18.06.2018 17:00:00 23,8 11,5 29,0 33,1 25,3 18,7 8 5 16 9 NW 1021,7 50 45 0,0
18.06.2018 16:00:00 23,2 11,5 28,7 32,7 24,8 18,7 6 4 18 10 NNW 1021,9 70 27 0,0
18.06.2018 15:00:00 23,2 9,5 29,6 34,6 24,1 18,7 9 5 19 10 W 1022,2 49 50 0,0
18.06.2018 14:00:00 22,7 9,7 31,2 34,1 23,3 18,6 11 6 19 10 W 1022,5 47 55 0,0
18.06.2018 13:00:00 22,8 11,2 30,8 32,8 22,6 18,6 8 5 20 11 W 1022,5 44 56 0,0
18.06.2018 12:00:00 20,3 10,8 25,1 30,2 21,9 18,6 9 5 24 13 NNW 1022,9 67 49 0,0
18.06.2018 11:00:00 20,6 11,2 27,1 27,9 21,5 18,6 5 3 15 8 WNW 1022,9 41 59 0,0
18.06.2018 10:00:00 18,7 10,9 22,1 23,7 21,2 18,6 7 4 10 6 NW 1023,0 70 49 0,0
18.06.2018 09:00:00 18,7 12,1 23,7 22,4 21,2 18,6 4 2 7 4 NNW 1023,0 39 44 0,0
18.06.2018 08:00:00 17,2 12,7 19,9 20,0 21,3 18,6 4 2 5 3 NNW 1022,9 37 54 0,0
18.06.2018 07:00:00 14,7 12,5 16,9 17,7 21,6 18,6 2 1 6 3 NNW 1022,8 25 30 0,0
18.06.2018 06:00:00 13,7 12,6 12,2 17,8 22,0 18,6 2 1 5 3 WNW 1022,8 22 0 0,0
18.06.2018 05:00:00 14,1 12,8 13,0 18,4 22,3 18,6 4 2 7 4 N 1022,4 25 0 0,0
18.06.2018 04:00:00 15,6 13,0 14,1 19,2 22,7 18,6 4 2 7 4 NNE 1022,3 40 0 0,0
18.06.2018 03:00:00 15,4 13,1 14,7 19,8 23,0 18,5 4 2 5 3 NNW 1022,2 32 0 0,0
18.06.2018 02:00:00 17,4 12,6 16,3 20,5 23,3 18,5 3 1 8 5 NNE 1022,0 42 0 0,0
18.06.2018 01:00:00 17,7 12,6 17,2 21,0 23,6 18,5 4 2 10 6 N 1022,0 36 0 0,0
18.06.2018 00:00:00 17,7 13,1 17,7 21,6 24,0 18,5 8 5 11 6 NW 1021,8 36 0 0,0
17.06.2018 23:00:00 18,7 12,7 18,2 22,2 24,3 18,5 6 3 18 10 NNW 1021,1 41 0 0,0
17.06.2018 22:00:00 19,3 13,0 18,9 23,0 24,7 18,5 8 4 16 8 NNW 1020,7 40 0 0,0
17.06.2018 21:00:00 19,8 13,0 19,8 24,0 25,0 18,5 8 5 16 9 NW 1020,0 40 0 0,0
17.06.2018 20:00:00 20,4 12,7 21,1 25,6 25,2 18,5 9 5 14 8 NNW 1019,2 43 0 0,0
17.06.2018 19:00:00 21,2 13,2 22,5 26,6 25,4 18,5 4 2 8 5 WNW 1018,8 45 0 0,0
17.06.2018 18:00:00 20,9 12,2 22,8 27,6 25,4 18,5 7 4 20 11 NNW 1018,8 42 0 0,0
17.06.2018 17:00:00 21,3 12,6 23,9 30,1 25,2 18,5 17 9 24 13 NNW 1018,7 44 15 0,0
17.06.2018 16:00:00 22,0 12,9 26,3 31,4 24,7 18,4 13 7 19 10 NNW 1018,2 39 15 0,0
17.06.2018 15:00:00 23,2 12,5 29,7 33,8 24,1 18,4 7 4 16 8 WNW 1018,0 45 28 0,0
17.06.2018 14:00:00 22,4 12,2 28,6 32,5 23,5 18,4 6 4 14 7 W 1018,4 44 37 0,0
17.06.2018 13:00:00 22,1 12,2 29,0 30,4 23,1 18,4 6 3 16 8 NNW 1018,6 46 24 0,0
17.06.2018 12:00:00 19,8 13,3 22,6 26,8 22,8 18,4 10 5 20 11 NNW 1019,0 40 16 0,0
17.06.2018 11:00:00 20,2 12,4 25,1 27,3 22,3 18,4 11 6 22 12 NNW 1018,9 42 23 0,0
17.06.2018 10:00:00 21,1 13,5 27,0 27,4 22,0 18,4 9 5 22 12 NW 1018,7 39 49 0,0
17.06.2018 09:00:00 20,1 14,2 23,3 24,4 21,9 18,4 5 3 9 5 NNW 1018,4 40 55 0,0
17.06.2018 08:00:00 18,5 13,8 19,6 20,5 22,0 18,4 2 1 4 2 W 1018,1 33 8 0,0
17.06.2018 07:00:00 16,7 14,2 17,2 19,5 22,3 18,4 3 1 8 4 W 1018,4 34 0 0,0
17.06.2018 06:00:00 15,8 14,1 16,0 19,3 22,6 18,4 4 2 6 3 NNW 1017,7 25 0 0,0
17.06.2018 05:00:00 16,2 13,7 15,5 19,3 23,0 18,3 3 2 9 5 NNW 1017,5 30 0 0,0
17.06.2018 04:00:00 16,0 14,0 14,2 19,7 23,4 18,3 3 1 5 3 NNW 1017,2 27 0 0,0
17.06.2018 03:00:00 16,2 13,6 14,7 20,0 23,8 18,3 3 2 9 5 NNE 1017,2 29 0 0,0
17.06.2018 02:00:00 15,9 14,0 13,9 20,6 24,3 18,3 3 1 5 3 NE 1016,9 23 0 0,0
17.06.2018 01:00:00 17,2 14,5 16,3 21,7 24,8 18,3 3 2 6 3 NNE 1017,1 24 0 0,0
17.06.2018 00:00:00 18,6 13,7 15,9 22,4 25,3 18,3 4 2 25 13 ENE 1016,4 27 0 0,0
16.06.2018 23:00:00 19,4 13,8 18,5 23,5 25,8 18,3 4 2 9 5 SSE 1015,6 31 0 0,0
16.06.2018 22:00:00 19,8 14,3 17,7 25,2 26,3 18,3 0 0 9 5 N 1015,1 27 0 0,0
16.06.2018 21:00:00 22,0 13,5 20,2 27,3 26,6 18,3 4 2 11 6 N 1014,4 38 30 0,0
16.06.2018 20:00:00 24,9 12,3 26,8 30,0 26,6 18,3 7 4 15 8 NW 1013,8 38 60 0,0
16.06.2018 19:00:00 25,6 10,8 28,4 32,5 26,4 18,3 9 5 18 10 W 1013,5 37 60 0,0
16.06.2018 18:00:00 25,7 12,2 30,8 34,8 26,0 18,3 8 4 16 9 WNW 1013,6 37 60 0,0
16.06.2018 17:00:00 25,0 10,8 32,7 36,1 25,4 18,3 8 5 16 9 NNW 1014,0 35 60 0,0
16.06.2018 16:00:00 24,8 11,4 31,9 34,9 24,8 18,3 8 4 18 10 NNE 1014,2 38 52 0,0
16.06.2018 15:00:00 24,3 11,8 31,1 34,2 24,1 18,3 8 4 18 10 NNW 1014,6 39 48 0,0

tt = temperature
td = dewpoint
tt 5cm = temperature 5cm
tt -5cm = temperature -5cm
tt -20cm = temperature -20cm
tt -100cm = temperature -100cm
ff = wind speed
fx = gusts
dd = wind direction
ppp = reduced air pressure
vv = visibility
sd = sunshine duration
rr = precipitation

Next stations